contact:dominique.lefevre@mio.osupytheas.fr, maurice.libes@osupytheas.fr, didier.mallarino@osupytheas.fr
Project:EMSO http://www.emso-fr.org/EMSO-France
Depth: 2436.0 m
Title:EMSO Ligure Ouest : Data MII capteur CSTAR
DateTime,Latitude,Longitude,Instrument_Serial,Reference_Counts,Signal_Counts,Corrected_Signal_raw_counts,Calculated_Beam_c_inverse_meters,Internal_thermistor_counts
DateTime,Latitude,Longitude,Instrument_Serial,Reference_Counts,Signal_Counts,Corrected_Signal_raw_counts,Calculated_Beam_c_inverse_meters,Internal_thermistor_counts
2022-09-02T00:01:10,42.805,6.029,CST-1368DR,4619,5149,11871,01.097,551
2022-09-02T00:04:11,42.805,6.029,CST-1368DR,4619,5150,11873,01.096,551
2022-09-02T00:07:13,42.805,6.029,CST-1368DR,4619,5149,11870,01.097,551
2022-09-02T00:10:14,42.805,6.029,CST-1368DR,4619,5148,11869,01.097,551
2022-09-02T00:13:16,42.805,6.029,CST-1368DR,4618,5150,11875,01.095,551
2022-09-02T00:16:17,42.805,6.029,CST-1368DR,4618,5149,11873,01.096,551
2022-09-02T00:19:19,42.805,6.029,CST-1368DR,4618,5150,11876,01.095,551
2022-09-02T00:22:21,42.805,6.029,CST-1368DR,4618,5148,11870,01.097,551
2022-09-02T00:25:22,42.805,6.029,CST-1368DR,4618,5147,11868,01.098,551
2022-09-02T00:28:24,42.805,6.029,CST-1368DR,4618,5148,11870,01.097,551
2022-09-02T00:31:25,42.805,6.029,CST-1368DR,4618,5147,11869,01.097,551
2022-09-02T00:34:27,42.805,6.029,CST-1368DR,4618,5151,11878,01.094,551
2022-09-02T00:37:29,42.805,6.029,CST-1368DR,4618,5145,11864,01.099,551
2022-09-02T00:40:30,42.805,6.029,CST-1368DR,4617,5144,11864,01.099,551
2022-09-02T00:43:32,42.805,6.029,CST-1368DR,4617,5145,11867,01.098,551
2022-09-02T00:46:33,42.805,6.029,CST-1368DR,4617,5147,11871,01.097,551
2022-09-02T00:49:35,42.805,6.029,CST-1368DR,4617,5146,11869,01.097,551
2022-09-02T00:52:36,42.805,6.029,CST-1368DR,4617,5146,11869,01.097,551
2022-09-02T00:55:38,42.805,6.029,CST-1368DR,4617,5146,11868,01.098,551
2022-09-02T00:58:40,42.805,6.029,CST-1368DR,4617,5145,11867,01.098,551
2022-09-02T01:01:41,42.805,6.029,CST-1368DR,4616,5000,11534,01.212,551
2022-09-02T01:04:43,42.805,6.029,CST-1368DR,4617,5143,11863,01.099,551
2022-09-02T01:07:44,42.805,6.029,CST-1368DR,4617,5144,11864,01.099,551
2022-09-02T01:10:46,42.805,6.029,CST-1368DR,4616,5145,11869,01.097,551
2022-09-02T01:13:48,42.805,6.029,CST-1368DR,4616,5141,11860,01.100,551
2022-09-02T01:16:49,42.805,6.029,CST-1368DR,4616,5143,11865,01.099,551
2022-09-02T01:19:51,42.805,6.029,CST-1368DR,4616,5142,11862,01.100,551
2022-09-02T01:22:52,42.805,6.029,CST-1368DR,4616,5144,11866,01.098,551
2022-09-02T01:25:54,42.805,6.029,CST-1368DR,4616,5144,11866,01.098,551
2022-09-02T01:28:55,42.805,6.029,CST-1368DR,4616,5142,11862,01.100,551
2022-09-02T01:31:57,42.805,6.029,CST-1368DR,4616,5142,11862,01.100,551
2022-09-02T01:34:59,42.805,6.029,CST-1368DR,4616,5141,11859,01.101,551
2022-09-02T01:38:00,42.805,6.029,CST-1368DR,4616,5142,11861,01.100,551
2022-09-02T01:41:02,42.805,6.029,CST-1368DR,4616,5142,11861,01.100,551
2022-09-02T01:44:03,42.805,6.029,CST-1368DR,4615,5142,11865,01.099,551
2022-09-02T01:47:05,42.805,6.029,CST-1368DR,4615,5142,11865,01.099,551
2022-09-02T01:50:06,42.805,6.029,CST-1368DR,4615,5140,11861,01.100,551
2022-09-02T01:53:08,42.805,6.029,CST-1368DR,4615,5141,11862,01.100,551
2022-09-02T01:56:10,42.805,6.029,CST-1368DR,4615,5139,11857,01.102,551
2022-09-02T01:59:11,42.805,6.029,CST-1368DR,4615,5141,11862,01.100,551
2022-09-02T02:02:13,42.805,6.029,CST-1368DR,4615,5142,11864,01.099,551
2022-09-02T02:05:14,42.805,6.029,CST-1368DR,4615,5142,11864,01.099,551
2022-09-02T02:08:16,42.805,6.029,CST-1368DR,4615,5141,11862,01.100,551
2022-09-02T02:11:18,42.805,6.029,CST-1368DR,4615,5141,11862,01.100,551
2022-09-02T02:14:19,42.805,6.029,CST-1368DR,4614,5141,11864,01.099,551
2022-09-02T02:17:21,42.805,6.029,CST-1368DR,4614,5141,11865,01.099,551
2022-09-02T02:20:22,42.805,6.029,CST-1368DR,4614,5140,11863,01.099,551
2022-09-02T02:23:24,42.805,6.029,CST-1368DR,4614,5141,11864,01.099,551
2022-09-02T02:26:25,42.805,6.029,CST-1368DR,4614,5140,11862,01.100,551
2022-09-02T02:29:27,42.805,6.029,CST-1368DR,4614,5139,11860,01.100,551
2022-09-02T02:32:29,42.805,6.029,CST-1368DR,4614,5140,11862,01.100,551
2022-09-02T02:35:30,42.805,6.029,CST-1368DR,4614,5139,11860,01.100,551
2022-09-02T02:38:32,42.805,6.029,CST-1368DR,4614,5139,11859,01.101,551
2022-09-02T02:41:33,42.805,6.029,CST-1368DR,4614,5143,11870,01.097,551
2022-09-02T02:44:35,42.805,6.029,CST-1368DR,4614,5149,11884,01.092,551
2022-09-02T02:47:36,42.805,6.029,CST-1368DR,4614,5139,11860,01.100,551
2022-09-02T02:50:38,42.805,6.029,CST-1368DR,4614,5141,11865,01.099,551
2022-09-02T02:53:40,42.805,6.029,CST-1368DR,4613,5141,11867,01.098,551
2022-09-02T02:56:41,42.805,6.029,CST-1368DR,4613,5133,11848,01.105,551
2022-09-02T02:59:43,42.805,6.029,CST-1368DR,4613,5141,11867,01.098,551
2022-09-02T03:02:44,42.805,6.029,CST-1368DR,4613,5140,11864,01.099,551
2022-09-02T03:05:46,42.805,6.029,CST-1368DR,4613,5142,11870,01.097,551
2022-09-02T03:08:48,42.805,6.029,CST-1368DR,4613,5139,11863,01.099,551
2022-09-02T03:11:49,42.805,6.029,CST-1368DR,4613,5139,11862,01.100,551
2022-09-02T03:14:51,42.805,6.029,CST-1368DR,4613,5139,11863,01.099,551
2022-09-02T03:17:52,42.805,6.029,CST-1368DR,4613,5141,11867,01.098,551
2022-09-02T03:20:54,42.805,6.029,CST-1368DR,4613,5138,11860,01.100,551
2022-09-02T03:23:55,42.805,6.029,CST-1368DR,4613,5140,11865,01.099,551
2022-09-02T03:26:57,42.805,6.029,CST-1368DR,4613,5138,11859,01.101,551
2022-09-02T03:29:59,42.805,6.029,CST-1368DR,4613,5138,11860,01.100,551
2022-09-02T03:33:00,42.805,6.029,CST-1368DR,4612,5138,11863,01.099,551
2022-09-02T03:36:02,42.805,6.029,CST-1368DR,4612,5137,11861,01.100,551
2022-09-02T03:39:03,42.805,6.029,CST-1368DR,4612,5140,11868,01.098,551
2022-09-02T03:42:05,42.805,6.029,CST-1368DR,4612,5140,11867,01.098,551
2022-09-02T03:45:06,42.805,6.029,CST-1368DR,4612,5133,11850,01.104,551
2022-09-02T03:48:08,42.805,6.029,CST-1368DR,4612,5133,11850,01.104,551
2022-09-02T03:51:10,42.805,6.029,CST-1368DR,4612,5137,11859,01.101,551
2022-09-02T03:54:11,42.805,6.029,CST-1368DR,4612,5139,11866,01.098,551
2022-09-02T03:57:13,42.805,6.029,CST-1368DR,4612,5140,11868,01.098,551
2022-09-02T04:00:14,42.805,6.029,CST-1368DR,4612,5140,11868,01.098,551
2022-09-02T04:03:16,42.805,6.029,CST-1368DR,4612,5138,11863,01.099,551
2022-09-02T04:06:18,42.805,6.029,CST-1368DR,4612,5139,11866,01.098,551
2022-09-02T04:09:19,42.805,6.029,CST-1368DR,4612,5140,11867,01.098,551
2022-09-02T04:12:21,42.805,6.029,CST-1368DR,4612,5138,11863,01.099,551
2022-09-02T04:15:22,42.805,6.029,CST-1368DR,4612,5138,11862,01.100,551
2022-09-02T04:18:24,42.805,6.029,CST-1368DR,4611,5136,11861,01.100,551
2022-09-02T04:21:25,42.805,6.029,CST-1368DR,4611,5137,11862,01.100,551
2022-09-02T04:24:27,42.805,6.029,CST-1368DR,4611,5137,11862,01.100,551
2022-09-02T04:27:29,42.805,6.029,CST-1368DR,4611,5137,11864,01.099,551
2022-09-02T04:30:30,42.805,6.029,CST-1368DR,4611,5137,11862,01.100,551
2022-09-02T04:33:32,42.805,6.029,CST-1368DR,4611,5136,11860,01.100,551
2022-09-02T04:36:33,42.805,6.029,CST-1368DR,4611,5134,11857,01.102,551
2022-09-02T04:39:35,42.805,6.029,CST-1368DR,4611,5133,11854,01.103,551
2022-09-02T04:42:36,42.805,6.029,CST-1368DR,4611,5134,11855,01.102,551
2022-09-02T04:45:38,42.805,6.029,CST-1368DR,4611,5137,11863,01.099,551
2022-09-02T04:48:40,42.805,6.029,CST-1368DR,4611,5136,11860,01.100,551
2022-09-02T04:51:41,42.805,6.029,CST-1368DR,4611,5134,11856,01.102,551
2022-09-02T04:54:43,42.805,6.029,CST-1368DR,4611,5136,11861,01.100,551
2022-09-02T04:57:44,42.805,6.029,CST-1368DR,4611,5136,11860,01.100,551
2022-09-02T05:00:46,42.805,6.029,CST-1368DR,4611,5135,11857,01.102,551
2022-09-02T05:03:48,42.805,6.029,CST-1368DR,4611,5134,11857,01.102,551
2022-09-02T05:06:49,42.805,6.029,CST-1368DR,4611,5132,11852,01.103,551
2022-09-02T05:09:51,42.805,6.029,CST-1368DR,4611,5135,11858,01.101,551
2022-09-02T05:12:52,42.805,6.029,CST-1368DR,4610,5136,11863,01.099,551
2022-09-02T05:15:54,42.805,6.029,CST-1368DR,4610,5134,11859,01.101,551
2022-09-02T05:18:55,42.805,6.029,CST-1368DR,4607,4830,11163,01.343,551
2022-09-02T05:21:57,42.805,6.029,CST-1368DR,4610,5134,11859,01.101,551
2022-09-02T05:24:59,42.805,6.029,CST-1368DR,4610,5136,11864,01.099,551
2022-09-02T05:28:00,42.805,6.029,CST-1368DR,4610,5137,11865,01.099,551
2022-09-02T05:31:02,42.805,6.029,CST-1368DR,4610,5136,11862,01.100,551
2022-09-02T05:34:03,42.805,6.029,CST-1368DR,4610,5137,11865,01.099,551
2022-09-02T05:37:05,42.805,6.029,CST-1368DR,4610,5136,11862,01.100,551
2022-09-02T05:40:07,42.805,6.029,CST-1368DR,4610,5133,11857,01.102,551
2022-09-02T05:43:08,42.805,6.029,CST-1368DR,4610,5137,11866,01.098,551
2022-09-02T05:46:10,42.805,6.029,CST-1368DR,4610,5136,11863,01.099,551
2022-09-02T05:49:11,42.805,6.029,CST-1368DR,4610,5134,11859,01.101,551
2022-09-02T05:52:13,42.805,6.029,CST-1368DR,4609,5047,11659,01.169,551
2022-09-02T05:55:14,42.805,6.029,CST-1368DR,4610,5134,11858,01.101,551
2022-09-02T05:58:16,42.805,6.029,CST-1368DR,4610,5137,11865,01.099,551
2022-09-02T06:01:18,42.805,6.029,CST-1368DR,4610,5136,11863,01.099,551
2022-09-02T06:04:19,42.805,6.029,CST-1368DR,4610,5135,11861,01.100,551
2022-09-02T06:07:21,42.805,6.029,CST-1368DR,4609,5134,11861,01.100,551
2022-09-02T06:10:22,42.805,6.029,CST-1368DR,4610,5137,11865,01.099,551
2022-09-02T06:13:24,42.805,6.029,CST-1368DR,4609,5137,11868,01.098,551
2022-09-02T06:16:25,42.805,6.029,CST-1368DR,4609,5134,11862,01.100,551
2022-09-02T06:19:27,42.805,6.029,CST-1368DR,4609,5133,11859,01.101,551
2022-09-02T06:22:29,42.805,6.029,CST-1368DR,4609,5134,11862,01.100,551
2022-09-02T06:25:30,42.805,6.029,CST-1368DR,4609,5135,11863,01.099,551
2022-09-02T06:28:32,42.805,6.029,CST-1368DR,4609,5133,11859,01.101,551
2022-09-02T06:31:33,42.805,6.029,CST-1368DR,4609,5134,11860,01.100,551
2022-09-02T06:34:35,42.805,6.029,CST-1368DR,4609,5135,11862,01.100,551
2022-09-02T06:37:37,42.805,6.029,CST-1368DR,4609,5136,11864,01.099,551
2022-09-02T06:40:38,42.805,6.029,CST-1368DR,4609,5136,11865,01.099,551
2022-09-02T06:43:40,42.805,6.029,CST-1368DR,4609,5136,11865,01.099,551
2022-09-02T06:46:41,42.805,6.029,CST-1368DR,4609,5134,11861,01.100,551
2022-09-02T06:49:43,42.805,6.029,CST-1368DR,4609,5135,11863,01.099,551
2022-09-02T06:52:44,42.805,6.029,CST-1368DR,4609,5136,11865,01.099,551
2022-09-02T06:55:46,42.805,6.029,CST-1368DR,4609,5135,11863,01.099,551
2022-09-02T06:58:48,42.805,6.029,CST-1368DR,4609,5134,11860,01.100,551
2022-09-02T07:01:49,42.805,6.029,CST-1368DR,4609,5136,11864,01.099,551
2022-09-02T07:04:51,42.805,6.029,CST-1368DR,4609,5136,11864,01.099,551
2022-09-02T07:07:52,42.805,6.029,CST-1368DR,4607,4727,10925,01.429,551
2022-09-02T07:10:54,42.805,6.029,CST-1368DR,4608,5091,11764,01.133,551
2022-09-02T07:13:55,42.805,6.029,CST-1368DR,4609,5182,11971,01.063,551
2022-09-02T07:16:57,42.805,6.029,CST-1368DR,4609,5175,11955,01.069,551
2022-09-02T07:19:59,42.805,6.029,CST-1368DR,4609,5174,11953,01.069,551
2022-09-02T07:23:00,42.805,6.029,CST-1368DR,4609,5173,11950,01.070,551
2022-09-02T07:26:02,42.805,6.029,CST-1368DR,4609,5173,11950,01.070,551
2022-09-02T07:29:03,42.805,6.029,CST-1368DR,4609,5174,11953,01.069,551
2022-09-02T07:32:05,42.805,6.029,CST-1368DR,4609,5176,11958,01.068,551
2022-09-02T07:35:07,42.805,6.029,CST-1368DR,4609,5176,11957,01.068,551
2022-09-02T07:38:08,42.805,6.029,CST-1368DR,4609,5171,11947,01.071,551
2022-09-02T07:41:10,42.805,6.029,CST-1368DR,4608,5168,11941,01.073,551
2022-09-02T07:44:11,42.805,6.029,CST-1368DR,4608,5169,11945,01.072,551
2022-09-02T07:47:13,42.805,6.029,CST-1368DR,4608,5177,11963,01.066,551
2022-09-02T07:50:14,42.805,6.029,CST-1368DR,4608,5173,11954,01.069,551
2022-09-02T07:53:16,42.805,6.029,CST-1368DR,4608,5168,11941,01.073,551
2022-09-02T07:56:18,42.805,6.029,CST-1368DR,4608,5172,11952,01.070,551
2022-09-02T07:59:19,42.805,6.029,CST-1368DR,4608,5171,11949,01.071,551
2022-09-02T08:02:21,42.805,6.029,CST-1368DR,4608,5172,11950,01.070,551
2022-09-02T08:05:22,42.805,6.029,CST-1368DR,4608,5173,11952,01.070,551
2022-09-02T08:08:24,42.805,6.029,CST-1368DR,4608,5174,11955,01.069,551
2022-09-02T08:11:25,42.805,6.029,CST-1368DR,4608,5171,11948,01.071,551
2022-09-02T08:14:27,42.805,6.029,CST-1368DR,4608,5169,11944,01.072,551
2022-09-02T08:17:29,42.805,6.029,CST-1368DR,4608,5171,11949,01.071,551
2022-09-02T08:20:30,42.805,6.029,CST-1368DR,4608,5175,11957,01.068,551
2022-09-02T08:23:32,42.805,6.029,CST-1368DR,4608,5174,11956,01.068,551
2022-09-02T08:26:33,42.805,6.029,CST-1368DR,4608,5170,11947,01.071,551
2022-09-02T08:29:35,42.805,6.029,CST-1368DR,4608,5167,11939,01.074,551
2022-09-02T08:32:37,42.805,6.029,CST-1368DR,4608,5169,11944,01.072,551
2022-09-02T08:35:38,42.805,6.029,CST-1368DR,4608,5166,11936,01.075,551
2022-09-02T08:38:40,42.805,6.029,CST-1368DR,4608,5170,11947,01.071,551
2022-09-02T08:41:41,42.805,6.029,CST-1368DR,4608,5169,11944,01.072,551
2022-09-02T08:44:43,42.805,6.029,CST-1368DR,4608,5173,11952,01.070,551
2022-09-02T08:47:44,42.805,6.029,CST-1368DR,4608,5170,11945,01.072,551
2022-09-02T08:50:46,42.805,6.029,CST-1368DR,4608,5172,11950,01.070,551
2022-09-02T08:53:48,42.805,6.029,CST-1368DR,4608,5171,11950,01.070,551
2022-09-02T08:56:49,42.805,6.029,CST-1368DR,4608,5171,11948,01.071,551
2022-09-02T08:59:51,42.805,6.029,CST-1368DR,4607,5170,11950,01.070,551
2022-09-02T09:02:52,42.805,6.029,CST-1368DR,4607,5174,11958,01.068,551
2022-09-02T09:05:54,42.805,6.029,CST-1368DR,4607,5171,11952,01.070,551
2022-09-02T09:08:56,42.805,6.029,CST-1368DR,4607,5169,11946,01.072,551
2022-09-02T09:11:57,42.805,6.029,CST-1368DR,4607,5169,11947,01.071,551
2022-09-02T09:14:59,42.805,6.029,CST-1368DR,4607,5172,11953,01.069,551
2022-09-02T09:18:00,42.805,6.029,CST-1368DR,4607,5171,11951,01.070,551
2022-09-02T09:21:02,42.805,6.029,CST-1368DR,4607,5171,11951,01.070,551
2022-09-02T09:24:03,42.805,6.029,CST-1368DR,4607,5171,11950,01.070,551
2022-09-02T09:27:05,42.805,6.029,CST-1368DR,4607,5172,11954,01.069,551
2022-09-02T09:30:07,42.805,6.029,CST-1368DR,4607,5171,11952,01.070,551
2022-09-02T09:33:08,42.805,6.029,CST-1368DR,4607,5174,11958,01.068,551
2022-09-02T09:36:10,42.805,6.029,CST-1368DR,4607,5172,11953,01.069,551
2022-09-02T09:39:11,42.805,6.029,CST-1368DR,4607,5171,11951,01.070,551
2022-09-02T09:42:13,42.805,6.029,CST-1368DR,4607,5170,11950,01.070,551
2022-09-02T09:45:14,42.805,6.029,CST-1368DR,4607,5172,11953,01.069,551
2022-09-02T09:48:16,42.805,6.029,CST-1368DR,4607,5174,11958,01.068,551
2022-09-02T09:51:18,42.805,6.029,CST-1368DR,4607,5171,11950,01.070,551
2022-09-02T09:54:19,42.805,6.029,CST-1368DR,4607,5166,11939,01.074,551
2022-09-02T09:57:21,42.805,6.029,CST-1368DR,4607,5170,11949,01.071,551
2022-09-02T10:00:22,42.805,6.029,CST-1368DR,4607,5171,11952,01.070,551
2022-09-02T10:03:24,42.805,6.029,CST-1368DR,4607,5172,11954,01.069,551
2022-09-02T10:06:26,42.805,6.029,CST-1368DR,4607,5173,11955,01.069,551
2022-09-02T10:09:27,42.805,6.029,CST-1368DR,4607,5170,11949,01.071,551
2022-09-02T10:12:29,42.805,6.029,CST-1368DR,4607,5173,11955,01.069,551
2022-09-02T10:15:30,42.805,6.029,CST-1368DR,4607,5171,11950,01.070,551
2022-09-02T10:18:32,42.805,6.029,CST-1368DR,4606,5165,11940,01.074,551
2022-09-02T10:21:33,42.805,6.029,CST-1368DR,4606,5166,11943,01.073,551
2022-09-02T10:24:35,42.805,6.029,CST-1368DR,4606,5169,11949,01.071,551
2022-09-02T10:27:37,42.805,6.029,CST-1368DR,4606,5168,11947,01.071,551
2022-09-02T10:30:38,42.805,6.029,CST-1368DR,4606,5169,11949,01.071,551
2022-09-02T10:33:40,42.805,6.029,CST-1368DR,4606,5168,11948,01.071,551
2022-09-02T10:36:41,42.805,6.029,CST-1368DR,4606,5165,11941,01.073,551
2022-09-02T10:39:43,42.805,6.029,CST-1368DR,4606,5166,11942,01.073,551
2022-09-02T10:42:44,42.805,6.029,CST-1368DR,4606,5168,11946,01.072,551
2022-09-02T10:45:46,42.805,6.029,CST-1368DR,4606,5167,11944,01.072,551
2022-09-02T10:48:48,42.805,6.029,CST-1368DR,4606,5168,11946,01.072,551
2022-09-02T10:51:49,42.805,6.029,CST-1368DR,4606,5165,11939,01.074,551
2022-09-02T10:54:51,42.805,6.029,CST-1368DR,4606,5167,11945,01.072,551
2022-09-02T10:57:52,42.805,6.029,CST-1368DR,4606,5166,11942,01.073,551
2022-09-02T11:00:54,42.805,6.029,CST-1368DR,4606,5166,11942,01.073,551
2022-09-02T11:03:56,42.805,6.029,CST-1368DR,4606,5166,11943,01.073,551
2022-09-02T11:06:57,42.805,6.029,CST-1368DR,4606,5166,11943,01.073,551
2022-09-02T11:09:59,42.805,6.029,CST-1368DR,4606,5168,11946,01.072,551
2022-09-02T11:13:00,42.805,6.029,CST-1368DR,4606,5166,11943,01.073,551
2022-09-02T11:16:02,42.805,6.029,CST-1368DR,4606,5168,11947,01.071,551
2022-09-02T11:19:03,42.805,6.029,CST-1368DR,4606,5165,11939,01.074,551
2022-09-02T11:22:05,42.805,6.029,CST-1368DR,4606,5167,11945,01.072,551
2022-09-02T11:25:07,42.805,6.029,CST-1368DR,4606,5165,11941,01.073,551
2022-09-02T11:28:08,42.805,6.029,CST-1368DR,4606,5165,11940,01.074,551
2022-09-02T11:31:10,42.805,6.029,CST-1368DR,4606,5166,11942,01.073,551
2022-09-02T11:34:11,42.805,6.029,CST-1368DR,4606,5165,11939,01.074,551
2022-09-02T11:37:13,42.805,6.029,CST-1368DR,4606,5168,11948,01.071,551
2022-09-02T11:40:14,42.805,6.029,CST-1368DR,4605,5165,11942,01.073,551
2022-09-02T11:43:16,42.805,6.029,CST-1368DR,4605,5167,11948,01.071,551
2022-09-02T11:46:18,42.805,6.029,CST-1368DR,4605,5167,11947,01.071,551
2022-09-02T11:49:19,42.805,6.029,CST-1368DR,4605,5169,11952,01.070,551
2022-09-02T11:52:21,42.805,6.029,CST-1368DR,4605,5168,11948,01.071,551
2022-09-02T11:55:22,42.805,6.029,CST-1368DR,4605,5166,11945,01.072,551
2022-09-02T11:58:24,42.805,6.029,CST-1368DR,4605,5165,11943,01.073,551
2022-09-02T12:01:26,42.805,6.029,CST-1368DR,4605,5166,11945,01.072,551
2022-09-02T12:04:27,42.805,6.029,CST-1368DR,4605,5166,11944,01.072,551
2022-09-02T12:07:29,42.805,6.029,CST-1368DR,4605,5165,11943,01.073,551
2022-09-02T12:10:30,42.805,6.029,CST-1368DR,4605,5168,11949,01.071,551
2022-09-02T12:13:32,42.805,6.029,CST-1368DR,4605,5144,11893,01.089,551
2022-09-02T12:16:33,42.805,6.029,CST-1368DR,4605,5144,11894,01.089,551
2022-09-02T12:19:35,42.805,6.029,CST-1368DR,4605,5145,11897,01.088,551
2022-09-02T12:22:37,42.805,6.029,CST-1368DR,4605,5149,11904,01.086,551
2022-09-02T12:25:38,42.805,6.029,CST-1368DR,4605,5171,11955,01.069,551
2022-09-02T12:28:40,42.805,6.029,CST-1368DR,4605,5172,11958,01.068,551
2022-09-02T12:31:41,42.805,6.029,CST-1368DR,4605,5168,11949,01.071,551
2022-09-02T12:34:43,42.805,6.029,CST-1368DR,4605,5168,11948,01.071,551
2022-09-02T12:37:44,42.805,6.029,CST-1368DR,4605,5175,11966,01.065,551
2022-09-02T12:40:46,42.805,6.029,CST-1368DR,4605,5175,11964,01.066,551
2022-09-02T12:43:48,42.805,6.029,CST-1368DR,4605,5174,11964,01.066,551
2022-09-02T12:46:49,42.805,6.029,CST-1368DR,4605,5173,11961,01.067,551
2022-09-02T12:49:51,42.805,6.029,CST-1368DR,4605,5174,11963,01.066,551
2022-09-02T12:52:52,42.805,6.029,CST-1368DR,4605,5175,11966,01.065,551
2022-09-02T12:55:54,42.805,6.029,CST-1368DR,4605,5176,11967,01.065,551
2022-09-02T12:58:56,42.805,6.029,CST-1368DR,4605,5173,11960,01.067,551
2022-09-02T13:01:57,42.805,6.029,CST-1368DR,4605,5175,11964,01.066,551
2022-09-02T13:04:59,42.805,6.029,CST-1368DR,4605,5174,11964,01.066,551
2022-09-02T13:08:00,42.805,6.029,CST-1368DR,4605,5175,11964,01.066,551
2022-09-02T13:11:02,42.805,6.029,CST-1368DR,4605,5175,11964,01.066,551
2022-09-02T13:14:03,42.805,6.029,CST-1368DR,4605,5174,11964,01.066,551
2022-09-02T13:17:05,42.805,6.029,CST-1368DR,4605,5171,11956,01.068,551
2022-09-02T13:20:07,42.805,6.029,CST-1368DR,4605,5175,11966,01.065,551
2022-09-02T13:23:08,42.805,6.029,CST-1368DR,4605,5176,11967,01.065,551
2022-09-02T13:26:10,42.805,6.029,CST-1368DR,4604,5176,11969,01.064,551
2022-09-02T13:29:11,42.805,6.029,CST-1368DR,4604,5176,11970,01.064,551
2022-09-02T13:32:13,42.805,6.029,CST-1368DR,4604,5175,11968,01.064,551
2022-09-02T13:35:14,42.805,6.029,CST-1368DR,4604,5174,11965,01.065,551
2022-09-02T13:38:16,42.805,6.029,CST-1368DR,4604,5174,11965,01.065,551
2022-09-02T13:41:18,42.805,6.029,CST-1368DR,4604,5173,11963,01.066,551
2022-09-02T13:44:19,42.805,6.029,CST-1368DR,4604,5174,11965,01.065,551
2022-09-02T13:47:21,42.805,6.029,CST-1368DR,4604,5171,11959,01.067,551
2022-09-02T13:50:22,42.805,6.029,CST-1368DR,4604,5172,11961,01.067,551
2022-09-02T13:53:24,42.805,6.029,CST-1368DR,4604,5173,11962,01.066,551
2022-09-02T13:56:26,42.805,6.029,CST-1368DR,4604,5172,11961,01.067,551
2022-09-02T13:59:27,42.805,6.029,CST-1368DR,4604,5174,11966,01.065,551
2022-09-02T14:02:29,42.805,6.029,CST-1368DR,4604,5175,11968,01.064,551
2022-09-02T14:05:30,42.805,6.029,CST-1368DR,4604,5175,11969,01.064,551
2022-09-02T14:08:32,42.805,6.029,CST-1368DR,4604,5175,11968,01.064,551
2022-09-02T14:11:33,42.805,6.029,CST-1368DR,4604,5176,11970,01.064,551
2022-09-02T14:14:35,42.805,6.029,CST-1368DR,4604,5174,11966,01.065,551
2022-09-02T14:17:37,42.805,6.029,CST-1368DR,4604,5176,11970,01.064,551
2022-09-02T14:20:38,42.805,6.029,CST-1368DR,4604,5175,11968,01.064,551
2022-09-02T14:23:40,42.805,6.029,CST-1368DR,4603,5168,11953,01.069,551
2022-09-02T14:26:41,42.805,6.029,CST-1368DR,4604,5172,11962,01.066,551
2022-09-02T14:29:43,42.805,6.029,CST-1368DR,4603,5174,11968,01.064,551
2022-09-02T14:32:44,42.805,6.029,CST-1368DR,4603,5174,11969,01.064,551
2022-09-02T14:35:46,42.805,6.029,CST-1368DR,4603,5174,11969,01.064,551
2022-09-02T14:38:48,42.805,6.029,CST-1368DR,4603,5174,11968,01.064,551
2022-09-02T14:41:49,42.805,6.029,CST-1368DR,4603,5173,11965,01.065,551
2022-09-02T14:44:51,42.805,6.029,CST-1368DR,4603,5174,11968,01.064,551
2022-09-02T14:47:52,42.805,6.029,CST-1368DR,4603,5173,11966,01.065,551
2022-09-02T14:50:54,42.805,6.029,CST-1368DR,4603,5172,11964,01.066,551
2022-09-02T14:53:56,42.805,6.029,CST-1368DR,4603,5169,11956,01.068,551
2022-09-02T14:56:57,42.805,6.029,CST-1368DR,4603,5172,11963,01.066,551
2022-09-02T14:59:59,42.805,6.029,CST-1368DR,4602,5169,11960,01.067,551
2022-09-02T15:03:00,42.805,6.029,CST-1368DR,4603,5172,11964,01.066,551
2022-09-02T15:06:02,42.805,6.029,CST-1368DR,4603,5168,11953,01.069,551
2022-09-02T15:09:03,42.805,6.029,CST-1368DR,4602,5163,11945,01.072,551
2022-09-02T15:12:05,42.805,6.029,CST-1368DR,4602,5162,11943,01.073,551
2022-09-02T15:15:07,42.805,6.029,CST-1368DR,4602,5167,11955,01.069,551
2022-09-02T15:18:08,42.805,6.029,CST-1368DR,4602,5167,11955,01.069,551
2022-09-02T15:21:10,42.805,6.029,CST-1368DR,4602,5167,11955,01.069,551
2022-09-02T15:24:11,42.805,6.029,CST-1368DR,4602,5168,11957,01.068,551
2022-09-02T15:27:13,42.805,6.029,CST-1368DR,4602,5165,11949,01.071,551
2022-09-02T15:30:15,42.805,6.029,CST-1368DR,4602,5165,11949,01.071,551
2022-09-02T15:33:16,42.805,6.029,CST-1368DR,4602,5170,11962,01.066,551
2022-09-02T15:36:18,42.805,6.029,CST-1368DR,4602,5172,11965,01.065,551
2022-09-02T15:39:19,42.805,6.029,CST-1368DR,4602,5170,11962,01.066,551
2022-09-02T15:42:21,42.805,6.029,CST-1368DR,4602,5171,11964,01.066,551
2022-09-02T15:45:22,42.805,6.029,CST-1368DR,4602,5164,11948,01.071,551
2022-09-02T15:48:24,42.805,6.029,CST-1368DR,4602,5172,11966,01.065,551
2022-09-02T15:51:26,42.805,6.029,CST-1368DR,4602,5170,11962,01.066,551
2022-09-02T15:54:27,42.805,6.029,CST-1368DR,4603,5166,11950,01.070,551
2022-09-02T15:57:29,42.805,6.029,CST-1368DR,4603,5168,11953,01.069,551
2022-09-02T16:00:30,42.805,6.029,CST-1368DR,4603,5171,11960,01.067,551
2022-09-02T16:03:32,42.805,6.029,CST-1368DR,4603,5169,11956,01.068,551
2022-09-02T16:06:33,42.805,6.029,CST-1368DR,4603,5171,11962,01.066,551
2022-09-02T16:09:35,42.805,6.029,CST-1368DR,4603,5169,11956,01.068,551
2022-09-02T16:12:37,42.805,6.029,CST-1368DR,4603,5169,11957,01.068,551
2022-09-02T16:15:38,42.805,6.029,CST-1368DR,4603,5171,11960,01.067,551
2022-09-02T16:18:40,42.805,6.029,CST-1368DR,4603,5171,11961,01.067,551
2022-09-02T16:21:41,42.805,6.029,CST-1368DR,4603,5170,11960,01.067,551
2022-09-02T16:24:43,42.805,6.029,CST-1368DR,4603,5169,11957,01.068,551
2022-09-02T16:27:45,42.805,6.029,CST-1368DR,4603,5171,11961,01.067,551
2022-09-02T16:30:46,42.805,6.029,CST-1368DR,4603,5171,11961,01.067,551
2022-09-02T16:33:48,42.805,6.029,CST-1368DR,4603,5171,11961,01.067,551
2022-09-02T16:36:49,42.805,6.029,CST-1368DR,4603,5171,11961,01.067,551